Time,TemperatureF,DewpointF,PressureIn,WindDirection,WindDirectionDegrees,WindSpeedMPH,WindSpeedGustMPH,Humidity,HourlyPrecipIn,Conditions,Clouds,dailyrainin,SoftwareType,DateUTC
2013-07-08 00:02:00,70.0,67.0,30.19,NNW,348,0.0,0.0,90,0.00,,,0.24,,2013-07-08 04:02:00,
2013-07-08 00:12:00,70.0,67.0,30.19,NNW,348,0.0,0.0,91,0.00,,,0.24,,2013-07-08 04:12:00,
2013-07-08 00:22:00,70.0,67.0,30.19,NNW,348,0.0,0.0,91,0.00,,,0.24,,2013-07-08 04:22:00,
2013-07-08 00:33:00,70.0,67.0,30.19,NNW,348,0.0,0.0,91,0.00,,,0.24,,2013-07-08 04:33:00,
2013-07-08 00:42:00,69.0,67.0,30.18,NNW,348,0.0,0.0,92,0.00,,,0.24,,2013-07-08 04:42:00,
2013-07-08 00:53:00,69.0,67.0,30.18,NNW,348,0.0,0.0,93,0.00,,,0.24,,2013-07-08 04:53:00,
2013-07-08 01:01:00,69.0,67.0,30.18,NNW,348,0.0,0.0,93,0.00,,,0.24,,2013-07-08 05:01:00,
2013-07-08 01:12:00,69.0,67.0,30.18,NNW,348,0.0,0.0,93,0.00,,,0.16,,2013-07-08 05:12:00,
2013-07-08 01:22:00,68.0,66.0,30.18,NNW,348,0.0,0.0,92,0.00,,,0.16,,2013-07-08 05:22:00,
2013-07-08 01:33:00,68.0,66.0,30.19,NNW,348,0.0,0.0,93,0.00,,,0.16,,2013-07-08 05:33:00,
2013-07-08 01:43:00,68.0,66.0,30.19,NNW,348,0.0,0.0,93,0.00,,,0.16,,2013-07-08 05:43:00,
2013-07-08 01:53:00,68.0,66.0,30.19,NNW,348,0.0,0.0,93,0.00,,,0.16,,2013-07-08 05:53:00,
2013-07-08 02:01:00,68.0,66.0,30.18,NNW,348,0.0,0.0,94,0.00,,,0.16,,2013-07-08 06:01:00,
2013-07-08 02:12:00,68.0,66.0,30.18,NNW,348,0.0,0.0,94,0.00,,,0.10,,2013-07-08 06:12:00,
2013-07-08 02:22:00,67.0,65.0,30.19,NNW,348,0.0,0.0,94,0.00,,,0.10,,2013-07-08 06:22:00,
2013-07-08 02:33:00,67.0,66.0,30.19,NNW,348,0.0,0.0,95,0.00,,,0.10,,2013-07-08 06:33:00,
2013-07-08 02:43:00,67.0,66.0,30.19,NNW,348,0.0,0.0,95,0.00,,,0.10,,2013-07-08 06:43:00,
2013-07-08 02:53:00,67.0,66.0,30.19,NNW,348,0.0,0.0,95,0.00,,,0.10,,2013-07-08 06:53:00,
2013-07-08 03:02:00,68.0,67.0,30.19,NNW,348,0.0,0.0,95,0.00,,,0.10,,2013-07-08 07:02:00,
2013-07-08 03:12:00,68.0,66.0,30.19,NNW,348,0.0,0.0,94,0.00,,,0.10,,2013-07-08 07:12:00,
2013-07-08 03:22:00,68.0,66.0,30.18,NNW,348,0.0,0.0,94,0.00,,,0.10,,2013-07-08 07:22:00,
2013-07-08 03:34:00,67.0,65.0,30.19,NNW,348,0.0,0.0,94,0.00,,,0.10,,2013-07-08 07:34:00,
2013-07-08 03:44:00,67.0,65.0,30.19,NNW,348,0.0,0.0,94,0.00,,,0.10,,2013-07-08 07:44:00,
2013-07-08 03:53:00,67.0,65.0,30.18,NNW,348,0.0,0.0,94,0.00,,,0.10,,2013-07-08 07:53:00,
2013-07-08 04:02:00,67.0,65.0,30.18,NNW,348,0.0,0.0,94,0.00,,,0.10,,2013-07-08 08:02:00,
2013-07-08 04:12:00,67.0,65.0,30.18,NNW,348,0.0,0.0,94,0.00,,,0.09,,2013-07-08 08:12:00,
2013-07-08 04:22:00,67.0,65.0,30.18,NNW,348,0.0,0.0,94,0.00,,,0.09,,2013-07-08 08:22:00,
2013-07-08 04:33:00,67.0,65.0,30.18,NNW,348,0.0,0.0,94,0.00,,,0.09,,2013-07-08 08:33:00,
2013-07-08 04:42:00,67.0,65.0,30.18,NNW,348,0.0,0.0,94,0.00,,,0.09,,2013-07-08 08:42:00,
2013-07-08 04:53:00,67.0,66.0,30.18,NNW,348,0.0,0.0,95,0.00,,,0.09,,2013-07-08 08:53:00,
2013-07-08 05:02:00,67.0,66.0,30.17,NNW,348,0.0,0.0,95,0.00,,,0.09,,2013-07-08 09:02:00,
2013-07-08 05:11:00,67.0,66.0,30.17,NNW,348,0.0,0.0,95,0.00,,,0.04,,2013-07-08 09:11:00,
2013-07-08 05:22:00,67.0,66.0,30.17,NNW,348,0.0,0.0,95,0.00,,,0.04,,2013-07-08 09:22:00,
2013-07-08 05:34:00,66.0,65.0,30.17,NNW,348,0.0,0.0,95,0.00,,,0.04,,2013-07-08 09:34:00,
2013-07-08 05:43:00,66.0,65.0,30.17,NNW,348,0.0,0.0,95,0.00,,,0.04,,2013-07-08 09:43:00,
2013-07-08 05:52:00,66.0,65.0,30.17,NNW,348,0.0,0.0,95,0.00,,,0.04,,2013-07-08 09:52:00,
2013-07-08 06:02:00,66.0,65.0,30.17,NNW,348,0.0,0.0,95,0.00,,,0.04,,2013-07-08 10:02:00,
2013-07-08 06:11:00,66.0,65.0,30.17,NNW,348,0.0,0.0,96,0.00,,,0.01,,2013-07-08 10:11:00,
2013-07-08 06:22:00,66.0,65.0,30.18,NNW,348,0.0,0.0,96,0.00,,,0.01,,2013-07-08 10:22:00,
2013-07-08 06:34:00,66.0,65.0,30.19,NNW,348,0.0,0.0,96,0.00,,,0.01,,2013-07-08 10:34:00,
2013-07-08 06:53:00,66.0,65.0,30.19,NNW,348,0.0,0.0,96,0.00,,,0.01,,2013-07-08 10:53:00,
2013-07-08 07:02:00,66.0,65.0,30.19,NNW,348,0.0,0.0,96,0.00,,,0.01,,2013-07-08 11:02:00,
2013-07-08 07:11:00,66.0,65.0,30.19,NNW,348,0.0,0.0,96,0.00,,,0.01,,2013-07-08 11:11:00,
2013-07-08 07:23:00,66.0,65.0,30.20,NNW,348,0.0,0.0,96,0.00,,,0.01,,2013-07-08 11:23:00,
2013-07-08 07:33:00,66.0,65.0,30.20,NNW,348,0.0,0.0,96,0.00,,,0.01,,2013-07-08 11:33:00,
2013-07-08 07:43:00,66.0,65.0,30.20,NNW,348,0.0,0.0,96,0.00,,,0.01,,2013-07-08 11:43:00,
2013-07-08 07:53:00,66.0,65.0,30.21,NNW,348,0.0,0.0,96,0.00,,,0.01,,2013-07-08 11:53:00,
2013-07-08 08:01:00,66.0,65.0,30.21,NNW,348,0.0,0.0,96,0.00,,,0.01,,2013-07-08 12:01:00,
2013-07-08 08:11:00,66.0,65.0,30.21,NNW,348,0.0,0.0,96,0.00,,,0.01,,2013-07-08 12:11:00,
2013-07-08 08:22:00,67.0,66.0,30.21,NNW,348,0.0,0.0,96,0.00,,,0.01,,2013-07-08 12:22:00,
2013-07-08 08:34:00,67.0,66.0,30.21,NNW,348,0.0,0.0,96,0.00,,,0.01,,2013-07-08 12:34:00,
2013-07-08 08:53:00,68.0,67.0,30.22,NNW,348,0.0,0.0,96,0.00,,,0.01,,2013-07-08 12:53:00,
2013-07-08 09:02:00,69.0,68.0,30.22,NNW,348,0.0,0.0,96,0.00,,,0.01,,2013-07-08 13:02:00,
2013-07-08 09:11:00,69.0,68.0,30.22,NNW,348,0.0,0.0,96,0.00,,,0.01,,2013-07-08 13:11:00,
2013-07-08 09:22:00,69.0,67.0,30.22,NNW,348,0.0,0.0,92,0.00,,,0.00,,2013-07-08 13:22:00,
2013-07-08 09:53:00,70.0,67.0,30.22,NNW,348,0.0,0.0,90,0.00,,,0.00,,2013-07-08 13:53:00,
2013-07-08 10:02:00,70.0,67.0,30.22,NNW,348,0.0,0.0,89,0.00,,,0.00,,2013-07-08 14:02:00,
2013-07-08 10:22:00,72.0,68.0,30.22,ENE,76,0.0,3.0,87,0.00,,,0.00,,2013-07-08 14:22:00,
2013-07-08 10:43:00,74.0,67.0,30.22,SSE,147,0.0,2.0,80,0.00,,,0.00,,2013-07-08 14:43:00,
2013-07-08 10:53:00,74.0,67.0,30.22,NE,34,0.0,1.0,78,0.00,,,0.00,,2013-07-08 14:53:00,
2013-07-08 11:43:00,78.0,67.0,30.25,ESE,118,0.0,1.0,70,0.00,,,0.00,,2013-07-08 15:43:00,
2013-07-08 11:53:00,78.0,68.0,30.24,ESE,118,0.0,1.0,71,0.00,,,0.00,,2013-07-08 15:53:00,
2013-07-08 12:43:00,79.0,67.0,30.24,SE,130,0.0,1.0,67,0.00,,,0.00,,2013-07-08 16:43:00,
2013-07-08 14:51:00,77.0,69.0,30.21,NNE,28,2.0,3.0,76,0.00,,,0.00,,2013-07-08 18:51:00,
2013-07-08 14:56:00,76.0,69.0,30.20,NNE,18,1.0,3.0,79,0.00,,,0.00,,2013-07-08 18:56:00,
2013-07-08 16:13:00,82.0,69.0,30.19,SW,219,1.0,4.0,64,0.00,,,0.00,,2013-07-08 20:13:00,
2013-07-08 16:43:00,80.0,68.0,30.18,East,82,0.0,0.0,68,0.00,,,0.00,,2013-07-08 20:43:00,
2013-07-08 17:14:00,77.0,70.0,30.16,South,182,0.0,3.0,78,0.00,,,0.00,,2013-07-08 21:14:00,
2013-07-08 17:51:00,74.0,69.0,30.16,NW,323,0.0,2.0,85,0.02,,,0.02,,2013-07-08 21:51:00,
2013-07-08 18:43:00,74.0,70.0,30.17,WNW,291,0.0,0.0,86,0.04,,,0.06,,2013-07-08 22:43:00,
2013-07-08 18:54:00,74.0,70.0,30.17,WNW,291,0.0,0.0,86,0.04,,,0.06,,2013-07-08 22:54:00,
2013-07-08 19:21:00,74.0,69.0,30.17,WNW,292,0.0,1.0,84,0.00,,,0.06,,2013-07-08 23:21:00,
2013-07-08 19:31:00,74.0,69.0,30.17,WNW,292,0.0,0.0,85,0.00,,,0.06,,2013-07-08 23:31:00,
2013-07-08 19:53:00,73.0,68.0,30.17,WNW,292,0.0,0.0,85,0.00,,,0.06,,2013-07-08 23:53:00,
2013-07-08 20:00:00,73.0,69.0,30.17,WNW,292,0.0,1.0,88,0.00,,,0.06,,2013-07-09 00:00:00,
2013-07-08 20:22:00,72.0,69.0,30.17,WNW,292,0.0,0.0,90,0.00,,,0.06,,2013-07-09 00:22:00,
2013-07-08 20:31:00,72.0,69.0,30.18,WNW,292,0.0,0.0,90,0.00,,,0.06,,2013-07-09 00:31:00,
2013-07-08 20:42:00,72.0,69.0,30.18,WNW,292,0.0,0.0,91,0.00,,,0.06,,2013-07-09 00:42:00,
2013-07-08 20:53:00,72.0,69.0,30.18,WNW,292,0.0,0.0,91,0.00,,,0.06,,2013-07-09 00:53:00,
2013-07-08 21:22:00,71.0,68.0,30.19,North,5,0.0,0.0,91,0.00,,,0.06,,2013-07-09 01:22:00,
2013-07-08 21:42:00,70.0,68.0,30.19,North,5,0.0,0.0,92,0.00,,,0.06,,2013-07-09 01:42:00,
2013-07-08 21:54:00,70.0,68.0,30.19,North,5,0.0,0.0,92,0.00,,,0.06,,2013-07-09 01:54:00,
2013-07-08 22:30:00,70.0,68.0,30.20,North,5,0.0,0.0,93,0.00,,,0.06,,2013-07-09 02:30:00,
2013-07-08 23:01:00,70.0,68.0,30.24,North,5,0.0,0.0,95,0.00,,,0.06,,2013-07-09 03:01:00,